Schneifelwetter: Wetterstation Hallschlag, 537 m . NN
Wetterdaten: Dienstag, 21.11.2006
Datum Zeit Temp. A. Temp. 2 Feuchte A. Luftdruck Regen Wind Richtung Richtung Sonnenschein Helligkeit T Regen Taupunkt Windchill
21.11.2006 00:00 5,2 C 5,0 C 95 % 1002 hPa 0,0 l/m 30,6 km/h (5 Bft) S45 185 0 min 0 lux 0,00 min 4,5 C -6,2 C
21.11.2006 00:15 5,3 C 5,1 C 95 % 1001 hPa 0,0 l/m 28,0 km/h (4 Bft) S22.5 185 0 min 0 lux 0,00 min 4,6 C -5,4 C
21.11.2006 00:30 5,5 C 5,2 C 95 % 1001 hPa 0,3 l/m 33,5 km/h (5 Bft) S67.5 190 0 min 0 lux 15,00 min 4,8 C -6,5 C
21.11.2006 00:45 5,6 C 5,3 C 95 % 1001 hPa 0,0 l/m 29,0 km/h (5 Bft) S-SW67.5 195 0 min 0 lux 0,00 min 4,9 C -5,3 C
21.11.2006 01:00 5,7 C 5,5 C 95 % 1000 hPa 0,0 l/m 31,0 km/h (5 Bft) S45 185 0 min 0 lux 0,00 min 5,0 C -5,6 C
21.11.2006 01:15 5,8 C 5,6 C 95 % 1000 hPa 0,3 l/m 35,8 km/h (5 Bft) S22.5 180 0 min 0 lux 15,00 min 5,1 C -6,6 C
21.11.2006 01:30 5,9 C 5,7 C 95 % 999 hPa 0,0 l/m 36,7 km/h (5 Bft) S22.5 180 0 min 0 lux 0,00 min 5,2 C -6,6 C
21.11.2006 01:45 6,0 C 5,8 C 95 % 999 hPa 0,3 l/m 29,0 km/h (5 Bft) S-SW45 195 0 min 0 lux 15,00 min 5,3 C -4,7 C
21.11.2006 02:00 6,2 C 6,0 C 95 % 999 hPa 0,0 l/m 34,3 km/h (5 Bft) S22.5 180 0 min 0 lux 0,00 min 5,5 C -5,7 C
21.11.2006 02:15 6,4 C 6,2 C 95 % 999 hPa 0,0 l/m 31,3 km/h (5 Bft) S-SW45 210 0 min 0 lux 0,00 min 5,7 C -4,7 C
21.11.2006 02:30 6,8 C 6,5 C 96 % 999 hPa 0,3 l/m 32,8 km/h (5 Bft) S-SW45 205 0 min 0 lux 15,00 min 6,2 C -4,5 C
21.11.2006 02:45 7,0 C 6,7 C 96 % 999 hPa 0,6 l/m 29,0 km/h (5 Bft) S-SW45 210 0 min 0 lux 15,00 min 6,4 C -3,3 C
21.11.2006 03:00 7,5 C 7,2 C 96 % 999 hPa 0,0 l/m 41,6 km/h (6 Bft) SW45 225 0 min 0 lux 0,00 min 6,9 C -5,1 C
21.11.2006 03:15 7,7 C 7,5 C 96 % 999 hPa 0,3 l/m 34,3 km/h (5 Bft) SW45 235 0 min 0 lux 15,00 min 7,1 C -3,5 C
21.11.2006 03:30 7,8 C 7,6 C 96 % 999 hPa 0,3 l/m 40,7 km/h (6 Bft) W-SW45 245 0 min 0 lux 15,00 min 7,2 C -4,5 C
21.11.2006 03:45 7,8 C 7,6 C 95 % 999 hPa 0,0 l/m 39,1 km/h (6 Bft) W-SW67.5 245 0 min 0 lux 0,00 min 7,0 C -4,2 C
21.11.2006 04:00 7,8 C 7,6 C 95 % 998 hPa 0,3 l/m 33,5 km/h (5 Bft) W-SW22.5 240 0 min 0 lux 15,00 min 7,0 C -3,2 C
21.11.2006 04:15 7,7 C 7,6 C 95 % 998 hPa 0,0 l/m 36,3 km/h (5 Bft) W-SW22.5 250 0 min 0 lux 0,00 min 7,0 C -3,9 C
21.11.2006 04:30 7,7 C 7,5 C 95 % 998 hPa 1,2 l/m 32,8 km/h (5 Bft) W-SW67.5 250 0 min 0 lux 15,00 min 7,0 C -3,2 C
21.11.2006 04:45 7,3 C 6,8 C 94 % 998 hPa 1,2 l/m 42,8 km/h (6 Bft) W-SW45 250 0 min 0 lux 15,00 min 6,4 C -5,5 C
21.11.2006 05:00 7,1 C 6,8 C 94 % 998 hPa 0,3 l/m 26,5 km/h (4 Bft) W-SW45 250 0 min 0 lux 15,00 min 6,2 C -2,5 C
21.11.2006 05:15 7,0 C 6,8 C 94 % 998 hPa 0,0 l/m 29,0 km/h (5 Bft) W-SW45 250 0 min 0 lux 0,00 min 6,1 C -3,3 C
21.11.2006 05:30 7,3 C 7,1 C 95 % 998 hPa 0,0 l/m 33,9 km/h (5 Bft) W-SW22.5 255 0 min 0 lux 0,00 min 6,6 C -4,0 C
21.11.2006 05:45 7,4 C 7,2 C 95 % 998 hPa 0,0 l/m 39,2 km/h (6 Bft) W-SW67.5 245 0 min 0 lux 0,00 min 6,7 C -4,8 C
21.11.2006 06:00 7,3 C 7,1 C 95 % 998 hPa 0,0 l/m 40,4 km/h (6 Bft) W-SW45 240 0 min 0 lux 0,00 min 6,6 C -5,2 C
21.11.2006 06:15 7,2 C 6,9 C 94 % 998 hPa 0,3 l/m 42,0 km/h (6 Bft) W45 270 0 min 0 lux 15,00 min 6,3 C -5,6 C
21.11.2006 06:30 7,0 C 6,6 C 94 % 998 hPa 0,0 l/m 38,3 km/h (5 Bft) W67.5 265 0 min 0 lux 0,00 min 6,1 C -5,3 C
21.11.2006 06:45 6,8 C 6,3 C 94 % 998 hPa 0,0 l/m 35,5 km/h (5 Bft) W-SW45 250 0 min 0 lux 0,00 min 5,9 C -5,0 C
21.11.2006 07:00 6,6 C 6,3 C 94 % 998 hPa 0,3 l/m 30,1 km/h (5 Bft) W-SW45 255 0 min 0 lux 15,00 min 5,7 C -4,1 C
21.11.2006 07:15 6,4 C 6,2 C 94 % 998 hPa 0,0 l/m 24,5 km/h (4 Bft) W-SW67.5 255 0 min 0 lux 0,00 min 5,5 C -2,9 C
21.11.2006 07:30 6,2 C 5,8 C 94 % 998 hPa 0,0 l/m 34,1 km/h (5 Bft) W45 260 0 min 0 lux 0,00 min 5,3 C -5,6 C
21.11.2006 07:45 6,0 C 5,6 C 94 % 998 hPa 0,0 l/m 19,9 km/h (4 Bft) W45 265 0 min 50 lux 0,00 min 5,1 C -1,8 C
21.11.2006 08:00 5,9 C 5,6 C 94 % 998 hPa 0,0 l/m 26,4 km/h (4 Bft) W45 260 0 min 114 lux 0,00 min 5,0 C -4,1 C
21.11.2006 08:15 5,9 C 5,5 C 94 % 998 hPa 0,0 l/m 34,9 km/h (5 Bft) W-SW22.5 255 0 min 535 lux 0,00 min 5,0 C -6,2 C
21.11.2006 08:30 5,7 C 5,3 C 94 % 998 hPa 0,0 l/m 26,5 km/h (4 Bft) W-SW45 250 0 min 973 lux 0,00 min 4,8 C -4,4 C
21.11.2006 08:45 5,6 C 5,2 C 94 % 998 hPa 0,0 l/m 24,9 km/h (4 Bft) W-SW45 255 0 min 2,11 klux 0,00 min 4,7 C -4,1 C
21.11.2006 09:00 5,6 C 5,2 C 94 % 998 hPa 0,0 l/m 21,6 km/h (4 Bft) W22.5 260 0 min 3,52 klux 0,00 min 4,7 C -3,0 C
21.11.2006 09:15 5,6 C 5,3 C 94 % 998 hPa 0,0 l/m 30,2 km/h (5 Bft) W22.5 260 0 min 4,31 klux 0,00 min 4,7 C -5,6 C
21.11.2006 09:30 5,8 C 5,4 C 94 % 999 hPa 0,0 l/m 19,7 km/h (3 Bft) W-SW22.5 250 0 min 14,5 klux 0,00 min 4,9 C -2,0 C
21.11.2006 09:46 6,3 C 5,8 C 94 % 999 hPa 0,3 l/m 22,5 km/h (4 Bft) W-SW45 245 0 min 16,0 klux 16,00 min 5,4 C -2,4 C
21.11.2006 10:00 6,3 C 5,8 C 93 % 998 hPa 0,0 l/m 26,0 km/h (4 Bft) W22.5 260 0 min 9,1 klux 0,00 min 5,3 C -3,5 C
21.11.2006 10:15 6,6 C 6,2 C 92 % 998 hPa 0,0 l/m 30,6 km/h (5 Bft) W-SW45 255 0 min 25,1 klux 0,00 min 5,4 C -4,3 C
21.11.2006 10:30 7,4 C 7,8 C 92 % 998 hPa 0,0 l/m 30,5 km/h (5 Bft) W-SW67.5 245 0 min 39,9 klux 0,00 min 6,2 C -3,1 C
21.11.2006 10:45 7,8 C 8,2 C 90 % 998 hPa 0,0 l/m 30,5 km/h (5 Bft) W-SW22.5 255 15 min 57,8 klux 0,00 min 6,3 C -2,6 C
21.11.2006 11:00 8,4 C 9,0 C 89 % 998 hPa 0,0 l/m 28,5 km/h (4 Bft) SW67.5 230 0 min 38,7 klux 0,00 min 6,7 C -1,2 C
21.11.2006 11:15 7,9 C 8,6 C 87 % 998 hPa 0,0 l/m 33,2 km/h (5 Bft) W-SW45 250 15 min 57,4 klux 0,00 min 5,9 C -3,0 C
21.11.2006 11:30 8,2 C 8,6 C 85 % 998 hPa 0,0 l/m 31,8 km/h (5 Bft) W-SW45 240 0 min 43,1 klux 0,00 min 5,8 C -2,3 C
21.11.2006 11:45 7,4 C 7,7 C 87 % 998 hPa 0,0 l/m 27,5 km/h (4 Bft) W-SW22.5 245 15 min 58,8 klux 0,00 min 5,4 C -2,4 C
21.11.2006 12:00 8,1 C 10,4 C 87 % 998 hPa 0,0 l/m 33,7 km/h (5 Bft) W-SW67.5 250 15 min 70,9 klux 0,00 min 6,1 C -2,8 C
21.11.2006 12:15 8,5 C 10,5 C 83 % 998 hPa 0,0 l/m 37,7 km/h (5 Bft) W-SW45 250 15 min 65,6 klux 0,00 min 5,8 C -3,0 C
21.11.2006 12:30 7,6 C 8,9 C 83 % 998 hPa 0,0 l/m 39,5 km/h (6 Bft) W-SW22.5 250 15 min 63,0 klux 0,00 min 4,9 C -4,6 C
21.11.2006 12:45 7,6 C 8,6 C 82 % 997 hPa 0,0 l/m 37,3 km/h (5 Bft) W-SW45 255 0 min 44,6 klux 0,00 min 4,7 C -4,2 C
21.11.2006 13:00 7,4 C 8,7 C 85 % 997 hPa 0,0 l/m 26,2 km/h (4 Bft) W-SW22.5 255 15 min 78,6 klux 0,00 min 5,0 C -2,0 C
21.11.2006 13:15 8,2 C 10,2 C 82 % 997 hPa 0,0 l/m 39,2 km/h (6 Bft) W-SW22.5 250 15 min 65,2 klux 0,00 min 5,3 C -3,6 C
21.11.2006 13:30 7,9 C 8,9 C 81 % 997 hPa 0,0 l/m 33,0 km/h (5 Bft) W-SW45 255 0 min 18,6 klux 0,00 min 4,8 C -3,0 C
21.11.2006 13:45 7,7 C 7,8 C 82 % 997 hPa 0,0 l/m 28,8 km/h (4 Bft) W-SW45 250 0 min 14,8 klux 0,00 min 4,8 C -2,3 C
21.11.2006 14:00 7,2 C 7,2 C 79 % 997 hPa 0,0 l/m 29,1 km/h (5 Bft) W-SW45 245 0 min 21,7 klux 0,00 min 3,8 C -3,1 C
21.11.2006 14:15 6,9 C 7,0 C 82 % 996 hPa 0,0 l/m 26,0 km/h (4 Bft) W-SW45 250 0 min 13,3 klux 0,00 min 4,0 C -2,7 C
21.11.2006 14:30 6,9 C 6,7 C 82 % 996 hPa 0,0 l/m 31,1 km/h (5 Bft) W-SW45 255 0 min 7,50 klux 0,00 min 4,0 C -4,0 C
21.11.2006 14:45 6,8 C 6,6 C 84 % 996 hPa 0,0 l/m 23,1 km/h (4 Bft) W22.5 260 0 min 6,48 klux 0,00 min 4,3 C -1,9 C
21.11.2006 15:00 5,9 C 5,0 C 83 % 997 hPa 1,2 l/m 51,1 km/h (7 Bft) W-SW22.5 255 0 min 5,05 klux 15,00 min 3,2 C -8,7 C
21.11.2006 15:15 5,2 C 4,7 C 87 % 996 hPa 0,0 l/m 32,7 km/h (5 Bft) W45 260 0 min 10,1 klux 0,00 min 3,2 C -6,8 C
21.11.2006 15:30 5,1 C 4,4 C 87 % 996 hPa 0,0 l/m 25,6 km/h (4 Bft) W-SW22.5 255 0 min 8,40 klux 0,00 min 3,1 C -5,0 C
21.11.2006 15:45 4,9 C 4,4 C 89 % 996 hPa 0,0 l/m 21,1 km/h (4 Bft) W-SW45 255 0 min 5,41 klux 0,00 min 3,2 C -3,7 C
21.11.2006 16:00 4,9 C 4,4 C 89 % 996 hPa 0,0 l/m 23,6 km/h (4 Bft) W-SW22.5 255 0 min 2,92 klux 0,00 min 3,2 C -4,6 C
21.11.2006 16:15 4,7 C 4,2 C 89 % 996 hPa 0,0 l/m 23,1 km/h (4 Bft) W45 260 0 min 1,44 klux 0,00 min 3,0 C -4,7 C
21.11.2006 16:30 4,5 C 3,9 C 89 % 996 hPa 0,0 l/m 15,0 km/h (3 Bft) W-SW22.5 255 0 min 1,44 klux 0,00 min 2,8 C -1,5 C
21.11.2006 16:45 4,3 C 3,8 C 90 % 996 hPa 0,0 l/m 18,7 km/h (3 Bft) W-SW22.5 255 0 min 525 lux 0,00 min 2,8 C -3,5 C
21.11.2006 17:00 4,2 C 3,5 C 90 % 996 hPa 0,0 l/m 15,0 km/h (3 Bft) W-SW45 250 0 min 188 lux 0,00 min 2,7 C -1,9 C
21.11.2006 17:15 3,7 C 3,0 C 91 % 996 hPa 0,0 l/m 13,2 km/h (3 Bft) W-SW45 240 0 min 59 lux 0,00 min 2,4 C -1,5 C
21.11.2006 17:30 3,4 C 2,6 C 91 % 996 hPa 0,0 l/m 11,4 km/h (2 Bft) W-SW45 250 0 min 10 lux 0,00 min 2,1 C -0,7 C
21.11.2006 17:45 3,3 C 2,6 C 91 % 996 hPa 0,0 l/m 15,6 km/h (3 Bft) W-SW22.5 255 0 min 0 lux 0,00 min 2,0 C -3,3 C
21.11.2006 18:00 3,1 C 2,2 C 91 % 996 hPa 0,0 l/m 15,1 km/h (3 Bft) W-SW45 250 0 min 0 lux 0,00 min 1,8 C -3,3 C
21.11.2006 18:15 2,6 C 1,7 C 91 % 996 hPa 0,0 l/m 10,3 km/h (2 Bft) W-SW22.5 255 0 min 0 lux 0,00 min 1,3 C -0,8 C
21.11.2006 18:30 2,3 C 1,3 C 91 % 996 hPa 0,0 l/m 8,2 km/h (2 Bft) W-SW 245 0 min 0 lux 0,00 min 1,0 C 0,6 C
21.11.2006 18:45 2,3 C 1,8 C 92 % 996 hPa 0,0 l/m 11,6 km/h (2 Bft) W-SW22.5 245 0 min 0 lux 0,00 min 1,1 C -2,1 C
21.11.2006 19:00 2,5 C 2,1 C 92 % 996 hPa 0,0 l/m 9,4 km/h (2 Bft) W-SW22.5 255 0 min 0 lux 0,00 min 1,3 C -0,2 C
21.11.2006 19:15 3,0 C 2,8 C 93 % 996 hPa 0,0 l/m 14,0 km/h (3 Bft) W-SW22.5 240 0 min 0 lux 0,00 min 2,0 C -2,8 C
21.11.2006 19:30 3,4 C 3,1 C 93 % 996 hPa 0,0 l/m 10,3 km/h (2 Bft) W-SW 250 0 min 0 lux 0,00 min 2,4 C 0,1 C
21.11.2006 19:45 3,6 C 3,3 C 93 % 996 hPa 0,0 l/m 13,8 km/h (3 Bft) W22.5 260 0 min 0 lux 0,00 min 2,6 C -2,0 C
21.11.2006 20:00 3,6 C 3,2 C 93 % 996 hPa 0,0 l/m 12,7 km/h (3 Bft) W22.5 265 0 min 0 lux 0,00 min 2,6 C -1,3 C
21.11.2006 20:15 3,5 C 3,3 C 93 % 996 hPa 0,0 l/m 10,3 km/h (2 Bft) W-SW 250 0 min 0 lux 0,00 min 2,5 C 0,2 C
21.11.2006 20:30 3,6 C 3,2 C 93 % 996 hPa 0,0 l/m 10,4 km/h (2 Bft) W-SW 255 0 min 0 lux 0,00 min 2,6 C 0,2 C
21.11.2006 20:45 3,4 C 2,9 C 93 % 996 hPa 0,0 l/m 17,5 km/h (3 Bft) W-SW22.5 255 0 min 0 lux 0,00 min 2,4 C -4,1 C
21.11.2006 21:00 3,3 C 2,7 C 93 % 996 hPa 0,0 l/m 12,5 km/h (3 Bft) W-SW22.5 255 0 min 0 lux 0,00 min 2,3 C -1,5 C
21.11.2006 21:15 3,3 C 2,9 C 93 % 996 hPa 0,0 l/m 12,3 km/h (3 Bft) W-SW22.5 255 0 min 0 lux 0,00 min 2,3 C -1,4 C
21.11.2006 21:30 3,3 C 3,0 C 93 % 997 hPa 0,0 l/m 11,3 km/h (2 Bft) W-SW22.5 255 0 min 0 lux 0,00 min 2,3 C -0,7 C
21.11.2006 21:45 3,4 C 2,8 C 93 % 997 hPa 0,0 l/m 12,7 km/h (3 Bft) W45 265 0 min 0 lux 0,00 min 2,4 C -1,5 C
21.11.2006 22:00 3,1 C 2,5 C 93 % 997 hPa 0,0 l/m 20,2 km/h (4 Bft) W45 270 0 min 0 lux 0,00 min 2,1 C -5,7 C
21.11.2006 22:15 3,1 C 2,4 C 92 % 997 hPa 0,0 l/m 11,9 km/h (2 Bft) W22.5 275 0 min 0 lux 0,00 min 1,9 C -1,4 C
21.11.2006 22:30 3,1 C 2,5 C 92 % 997 hPa 0,0 l/m 12,8 km/h (3 Bft) W-SW45 255 0 min 0 lux 0,00 min 1,9 C -1,9 C
21.11.2006 22:45 3,1 C 2,6 C 92 % 997 hPa 0,0 l/m 10,1 km/h (2 Bft) W-SW22.5 250 0 min 0 lux 0,00 min 1,9 C -0,1 C
21.11.2006 23:00 3,2 C 2,7 C 92 % 997 hPa 0,0 l/m 14,6 km/h (3 Bft) W-SW22.5 255 0 min 0 lux 0,00 min 2,0 C -2,9 C
21.11.2006 23:15 3,1 C 2,7 C 92 % 997 hPa 0,0 l/m 9,8 km/h (2 Bft) W22.5 270 0 min 0 lux 0,00 min 1,9 C 0,1 C
21.11.2006 23:30 3,1 C 2,6 C 92 % 997 hPa 0,0 l/m 13,3 km/h (3 Bft) SW22.5 230 0 min 0 lux 0,00 min 1,9 C -2,2 C
21.11.2006 23:45 3,1 C 2,6 C 92 % 997 hPa 0,0 l/m 15,7 km/h (3 Bft) W22.5 265 0 min 0 lux 0,00 min 1,9 C -3,6 C
_ Min-Zeit 18:30 18:30 14:00 14:15 - 18:30 - - - - - 18:30 15:00
Minimum _ 2,3 C 1,3 C 79 % 996 hPa - 8,2 km/h (2 Bft) - - - - - 1,0 C -8,7 C
_ Max-Zeit 12:15 12:15 02:30 00:00 04:30 15:00 - - 10:45 13:00 09:46 03:30 18:30
Maximum _ 8,5 C 10,5 C 96 % 1002 hPa 1,2 l/m 51,1 km/h
W-SW (7 Bft)
- - 15 min 78,6 klux 16,00 min 7,2 C 0,6 C
Durchschnitt _ 5,6 C 5,4 C 91 % 998 hPa #7,2 l/m 25,8 km/h (4 Bft) W-SW - #2:00 h 9,1 klux #3:46 h 4,3 C -3,4 C